Content
SEND FEEDBACK

Daily
Averages
Monthly
Summary
Mexico

CANCUN, QUINTANA ROO


Home > North America > Mexico > Quintana Roo
Elevation: 9 meters     Latitude: 21 09N     Longitude: 086 49W

WEATHER
 
SELECT A DAY
Number of Records: 165,850;   Date Range: 1/1/95 - 9/30/14
 
SHARE

PRINT THIS DATA

[ ← Previous Day ]
WEATHER ALMANAC - 3 JULY, 2013
[ Next Day → ]
[ °F ]   °C
Weather ElementAverageHighLow
Temperature25.1 °C28 °C (7:44 am)22 °C (9:46 pm)
Dewpoint23.6 °C25 °C (8:45 am)22 °C (11:22 am)
Humidity91.7 %100 % (2:43 am)79 % (7:44 am)
Barometer940.7 hPa1016.9 hPa (11:40 pm) (7:00 pm)
Wind Speed12.2 km/h25.9 km/h (10:40 am)
Weather ElementAverage
Visibility8 km
Wind DirectionSE (139.2 °)

Weather ElementTotal
Precipitation---
Cooling Degree Days6.7 (Base 18.3)
Growing Degree Days15 (Base 10)
Averaged from 26 records on 3 July, 2013
WEATHER CONDITIONS BREAKOUT
WIND DIRECTION BREAKOUT
WEATHER BY HOUR - 3 JULY, 2013
[ °F ]   °C
Local TimeTemperatureDewpointHumidityBarometerVisibilityWind DirectionWind SpeedGust SpeedPrecipitationEventsConditions
1:44 AM25 °C24 °C94 %1014.6 hPa8 kmCalmRainLight Rain
2:43 AM24 °C24 °C100 %1013.5 hPa8 kmCalmOvercast
3:46 AM24 °C23 °C94 %1012.2 hPa8 kmESE (120°)16.7 km/hOvercast
4:45 AM24 °C23 °C94 %1012.9 hPa8 kmESE (120°)14.8 km/hOvercast
5:44 AM24 °C23 °C94 %1013.2 hPa8 kmESE (120°)11.1 km/hRainLight Rain
6:43 AM26 °C24 °C89 %1013.2 hPa9.7 kmSSE (150°)9.3 km/hMostly Cloudy
7:44 AM28 °C24 °C79 %1014.6 hPa9.7 kmSSE (150°)14.8 km/hMostly Cloudy
8:45 AM28 °C25 °C84 %1014.6 hPa3.2 kmSE (130°)20.4 km/hRainRain
9:01 AM27 °C25 °C89 %1014.9 hPa6.4 kmSE (130°)20.4 km/hRainLight Rain
9:40 AM25 °C24 °C94 %1015.6 hPa6.4 kmSSE (160°)13 km/hRainLight Rain
10:40 AM25 °C23 °C89 %1015.9 hPa6.4 kmSW (230°)25.9 km/hRainLight Rain
11:22 AM23 °C22 °C94 %6.4 kmSW (230°)3.7 km/hOvercast
11:40 AM23 °C22 °C94 %1016.3 hPa9.7 kmCalmOvercast
12:40 PM25 °C24 °C94 %1015.6 hPa9.7 kmSSE (150°)16.7 km/hOvercast
1:40 PM26 °C25 °C94 %1015.2 hPa9.7 kmSE (130°)22.2 km/hRainLight Rain
2:40 PM27 °C25 °C89 %1014.9 hPa9.7 kmSE (130°)14.8 km/hRainLight Rain
3:40 PM27 °C23 °C79 %1013.9 hPa9.7 kmSE (130°)22.2 km/hOvercast
4:40 PM28 °C24 °C79 %1013.9 hPa9.7 kmSE (140°)16.7 km/hOvercast
5:41 PM26 °C24 °C89 %1014.6 hPa9.7 kmEast (100°)14.8 km/hOvercast
6:24 PM26 °C24 °C89 %6.4 kmSE (130°)20.4 km/hRainRain
6:45 PM25 °C24 °C94 %1014.9 hPa8 kmEast (80°)7.4 km/hOvercast
7:41 PM25 °C24 °C94 %1014.9 hPa6.4 kmEast (80°)5.6 km/hRainLight Rain
8:40 PM23 °C22 °C94 %1015.6 hPa4.8 kmENE (60°)9.3 km/hRainRain
9:46 PM22 °C22 °C100 %1015.9 hPa8 kmNorth (350°)7.4 km/hRainLight Rain
10:42 PM23 °C23 °C100 %1016.6 hPa8 kmWNW (300°)3.7 km/hRainLight Rain
11:40 PM23 °C23 °C100 %1016.9 hPa9.7 kmWNW (300°)7.4 km/hOvercast
Hourly data recorded from MMUN, located 0 kilometers away from Cancun, Quintana Roo







STORIES FROM OUR PARTNERS